Meath Environmental Platform

Observations for Trim Patrick St

Time AQI Temp °C Hum % Pres Pa CO μg/m³ H₂S μg/m³ NO μg/m³ NO₂ μg/m³ O₃ μg/m³ SO₂ μg/m³ PM1 μg/m³ PM2.5 μg/m³ PM10 μg/m³
Saturday 8 August 2026
16:17 2 33.2 32 69,395 0 0 0.57 13.63 89.79 17.91 2 7.54 8.3
16:14 2 32.8 32 69,399 0 0 0.63 16.14 76.74 16.18 2 8.32 9.16
16:12 2 32.4 34 69,355 0 11.92 0.63 14.94 96.49 17.84 2.86 8.19 9.01
16:09 2 32.1 33 69,338 0 2.56 0.71 12.3 85.87 17.01 2.86 8.27 9.09
16:08 2 32 33 69,320 0 2.92 0.74 15.26 96.61 16.21 2 8.28 9.11
16:07 2 31.9 33 69,320 0 3.36 0.75 12.82 90.15 17.37 2 8.28 9.11
16:06 2 31.9 34 69,328 0 0 0.73 12.83 87.86 17.02 2.86 8.23 9.06
16:05 2 31.8 34 69,336 0 0.74 0.74 12.85 65.9 16.67 2.86 9.02 9.93
16:04 2 31.8 34 69,345 0 4.45 0.75 13.32 92.66 17.14 2 7.44 8.19
16:03 2 31.7 35 69,326 0 2.9 0.73 13.03 77.1 16.61 2.86 8.18 9
16:02 2 31.7 34 69,308 0 7.74 0.75 15.55 85.33 16.85 2 7.42 8.16
16:01 2 31.6 34 69,310 0 6.89 0.76 14.58 97.12 16.38 2.86 8.21 9.03
16:00 2 31.6 34 69,314 0 7.29 0.75 15.71 97.82 16.13 2.86 8.19 9.01
15:59 2 31.5 34 69,316 0 16.24 0.75 15.03 83.27 17.14 2 7.41 8.15
15:58 2 31.4 35 69,294 0 14.96 0.74 14.06 91.95 17.24 3.71 8.96 9.85
15:57 2 31.3 35 69,294 0 11.35 0.78 20.73 96.29 16.29 2 7.38 8.12
15:56 2 31.2 35 69,294 0 12.62 0.74 14.54 111.26 17.31 2.86 8.14 8.96
15:55 2 31.1 34 69,294 0 9.78 0.8 13.6 83.71 16.2 2 8.2 9.02
15:54 2 31 34 69,296 0 13.17 0.83 19.5 105.57 16.37 2 7.4 8.14
15:52 2 31 34 69,300 0 11.56 0.78 14.15 121.29 18.07 2.86 8.21 9.03